Location: Central Falls
(41.8900°N, 71.3929°W)
Time: 12:09:31
(UTC+00:00)

Courier 1B Rocket - Pass Details

Date: 06 December 2023
Orbit: 920 x 1202 km, 28.2° (Epoch: 01 March)

Event Time Altitude Azimuth Distance (km) Brightness Sun altitude
Rises 14:49:58 0° 205° (SSW) 3,834 8.7 21.0°
Reaches altitude 10° 14:55:32 10° 170° (S) 2,796 9.2 21.5°
Maximum altitude 14:56:58 11° 157° (SSE) 2,724 9.7 21.6°
Drops below altitude 10° 14:58:22 10° 145° (SE) 2,756 9.3 21.7°
Sets 15:03:39 0° 109° (ESE) 3,636 8.6 22.1°
